GORIZONT 1 1 11158U 78118A 22144.64329922 .00000031 00000-0 00000+0 0 9994 2 11158 11.1060 206.4898 3490485 279.7266 43.4640 1.00291649108031 GORIZONT 2 1 11440U 79062A 22145.61098338 .00000012 00000-0 00000-0 0 9999 2 11440 9.3402 302.1352 0000630 184.5411 38.6727 1.00253078123149 GORIZONT 3 1 11648U 79105A 22145.60183519 .00000120 00000-0 00000-0 0 9992 2 11648 9.4975 303.5503 0012861 204.1582 353.8725 1.00297288107609 GORIZONT 4 1 11841U 80049A 22145.85120753 -.00000080 00000-0 00000-0 0 9990 2 11841 10.6420 309.2290 0001659 97.8447 243.8113 0.98628532218887 GORIZONT 5 1 13092U 82020A 22145.65360034 -.00000163 00000-0 00000-0 0 9999 2 13092 11.6236 314.4781 0033341 208.0297 145.6032 0.98533629106975 GORIZONT 6 1 13624U 82103A 22145.65394921 .00000077 00000-0 00000-0 0 9997 2 13624 10.5398 314.4995 0002764 142.9946 212.6977 1.00244896106064 GORIZONT 7 1 14160U 83066A 22145.65700184 -.00000104 00000-0 00000-0 0 9996 2 14160 12.1804 323.7295 0008615 324.7560 38.1169 0.98348518140164 GORIZONT 8 1 14532U 83118A 22145.69251797 -.00000138 00000-0 00000-0 0 9999 2 14532 12.3481 325.5619 0030630 145.0309 138.7563 0.98270068105921 GORIZONT 9 1 14940U 84041A 22145.67307672 -.00000297 00000-0 00000-0 0 9996 2 14940 11.5429 323.6329 0003900 192.5682 65.3467 1.00258133107063 GORIZONT 10 1 15144U 84078A 22145.59083240 .00000020 00000-0 00000-0 0 9999 2 15144 11.6334 324.6545 0002012 94.2718 271.7559 1.00172335139708 GORIZONT 11 1 15484U 85007A 22145.82438874 .00000092 00000-0 00000-0 0 9991 2 15484 11.8079 326.6136 0004815 130.5086 128.7775 1.00376956137755 GORIZONT 12 1 16769U 86044A 22145.67335757 -.00000263 00000-0 00000-0 0 9990 2 16769 12.4079 331.9481 0001393 114.3051 131.9358 1.00208297132380 GORIZONT 13 1 17083U 86090A 22145.71382488 -.00000075 00000-0 00000-0 0 9990 2 17083 14.2608 339.0511 0013415 348.0250 242.2724 0.96725442104298 GORIZONT 14 1 17969U 87040A 22145.65630410 -.00000132 00000-0 00000-0 0 9997 2 17969 13.2399 330.5177 0031441 167.7676 184.2701 0.97659393105369 GORIZONT 15 1 19017U 88028A 22145.52794881 -.00000084 00000-0 00000-0 0 9995 2 19017 14.5349 341.9162 0037954 150.8989 220.3647 0.97827783104998 GORIZONT 16 1 19397U 88071A 22145.69154024 .00000045 00000-0 00000-0 0 9997 2 19397 13.3893 340.6036 0016445 61.7518 109.5168 0.99981164123405 GORIZONT 17 1 19765U 89004A 22145.72658209 -.00000087 00000-0 00000-0 0 9998 2 19765 13.9218 343.9236 0024332 125.1801 231.8696 0.99067867120871 GORIZONT 18 1 20107U 89052A 22145.49381049 -.00000228 00000-0 00000-0 0 9999 2 20107 13.9593 345.1902 0033247 318.9126 225.0538 0.99399674119669 GORIZONT 19 1 20263U 89081A 22145.69485453 .00000114 00000-0 00000-0 0 9993 2 20263 13.6908 344.3943 0002005 150.2893 35.7525 1.00297117 32467 GORIZONT 20 1 20659U 90054A 22145.67225674 -.00000274 00000-0 00000-0 0 9997 2 20659 14.1160 347.2287 0006460 151.1333 77.9978 1.00306406116817 GORIZONT 21 1 20923U 90094A 22145.21475359 .00000003 00000-0 00000-0 0 9991 2 20923 14.1250 348.0034 0003277 178.9161 24.7104 1.00380246115565 GORIZONT 22 1 20953U 90102A 22145.77562344 -.00000347 00000-0 00000-0 0 9998 2 20953 14.0826 348.3649 0003934 34.9136 271.8581 1.00316101115499 GORIZONT 23 1 21533U 91046A 22145.62415233 .00000023 00000-0 00000-0 0 9999 2 21533 14.8239 352.4851 0003589 353.0652 193.6252 0.98906112 32010 GORIZONT 24 1 21759U 91074A 22145.20743170 -.00000184 00000-0 00000-0 0 9997 2 21759 14.9696 354.3756 0015819 220.3846 53.7933 0.98444185110345 GORIZONT 25 1 21922U 92017A 22145.86228425 -.00000250 00000-0 00000-0 0 9994 2 21922 14.5140 353.7236 0030790 78.3268 278.5928 0.99860535110126 GORIZONT 26 1 22041U 92043A 22145.26728359 .00000039 00000-0 00000+0 0 9994 2 22041 14.6751 355.7115 0028153 231.7608 332.5824 0.99242427108766 GORIZONT 27 1 22245U 92082A 22138.46444453 -.00000379 00000-0 00000-0 0 9996 2 22245 14.5977 355.3895 0013531 14.5179 154.5339 1.00177451112187 GORIZONT 28 1 22880U 93069A 22145.63034222 .00000004 00000-0 00000-0 0 9997 2 22880 14.7144 359.1701 0035081 126.0177 57.8892 0.99646786104346 GORIZONT 29 1 22907U 93072A 22145.72175509 .00000105 00000-0 00000-0 0 9997 2 22907 14.6280 358.6464 0010769 356.7835 191.3457 1.00124222104312 GORIZONT 30 1 23108U 94030A 22145.69518831 -.00000331 00000-0 00000-0 0 9993 2 23108 14.6378 359.5621 0002422 94.5365 175.0250 1.00315820102584 GORIZONT 31 1 23775U 96005A 22145.83358948 -.00000014 00000-0 00000-0 0 9992 2 23775 14.5165 5.7343 0017077 195.5498 355.2145 0.99896930 96231 GORIZONT 32 1 23880U 96034A 22145.59510609 -.00000112 00000-0 00000-0 0 9997 2 23880 14.4620 6.2585 0009319 0.8942 346.1933 1.00142621 95168 GORIZONT 33 1 26372U 00029A 22145.43067753 -.00000311 00000-0 00000-0 0 9996 2 26372 13.1205 17.3679 0004990 68.3633 259.6529 1.00348696 80540